When you browse on this site, cookies collect data to enhance your experience and personalize the content and advertising you see.
Visit our Privacy Policy to learn more. By continuing to use the site, you agree to this use of cookies and data.
  • en Suisse
  • Liste des pays
  • À 7 jours
  • Température de l'eau
  • Carte satellitaire
  • Carte météo
  • Widgets météo
  • user-avatar
    Se connecter

    Météo par heure à Dangriga

    Ce jour, 17 Juillet, Mercredi

    Heure Température Précipitation Vent Pression Humidité
    00:00 +27°C° 0.4 mm 5 m/s 760 mmHg 99%
    01:00 +27°C° 0.1 mm 5 m/s 760 mmHg 99%
    02:00 +27°C° 0.1 mm 5 m/s 760 mmHg 99%
    03:00 +26°C° 0.1 mm 5 m/s 759 mmHg 99%
    04:00 +26°C° 0.3 mm 6 m/s 760 mmHg 98%
    05:00 +26°C° 0.3 mm 6 m/s 760 mmHg 98%
    06:00 +26°C° 0.3 mm 6 m/s 760 mmHg 98%
    07:00 +27°C° 1.1 mm 6 m/s 760 mmHg 97%
    08:00 +28°C° 1.1 mm 6 m/s 761 mmHg 95%
    09:00 +29°C° 1.1 mm 6 m/s 761 mmHg 94%
    10:00 +29°C° 1.8 mm 6 m/s 761 mmHg 93%
    11:00 +29°C° 1.8 mm 6 m/s 761 mmHg 93%
    12:00 +29°C° 1.8 mm 6 m/s 761 mmHg 93%
    13:00 +29°C° 2.3 mm 6 m/s 760 mmHg 94%
    14:00 +29°C° 2.3 mm 6 m/s 760 mmHg 95%
    15:00 +28°C° 2.3 mm 6 m/s 759 mmHg 96%
    16:00 +28°C° 1.4 mm 6 m/s 759 mmHg 97%
    17:00 +28°C° 1.4 mm 6 m/s 759 mmHg 97%
    18:00 +27°C° 1.4 mm 6 m/s 759 mmHg 98%
    19:00 +27°C° 1.3 mm 6 m/s 760 mmHg 98%
    20:00 +26°C° 1.3 mm 6 m/s 760 mmHg 98%
    21:00 +26°C° 1.3 mm 6 m/s 760 mmHg 98%
    22:00 +26°C° 1 mm 6 m/s 760 mmHg 98%
    23:00 +26°C° 1 mm 7 m/s 760 mmHg 99%

    Demain, 18 Juillet, Jeudi

    Heure Température Précipitation Vent Pression Humidité
    00:00 +26°C° 1 mm 7 m/s 760 mmHg 99%
    01:00 +26°C° 1.1 mm 7 m/s 760 mmHg 99%
    02:00 +26°C° 1.1 mm 7 m/s 759 mmHg 98%
    03:00 +26°C° 1.1 mm 7 m/s 759 mmHg 98%
    04:00 +26°C° 0.5 mm 7 m/s 759 mmHg 98%
    05:00 +26°C° 0.5 mm 7 m/s 759 mmHg 98%
    06:00 +26°C° 0.5 mm 7 m/s 759 mmHg 99%
    07:00 +27°C° 0.1 mm 7 m/s 760 mmHg 96%
    08:00 +28°C° 0.1 mm 7 m/s 760 mmHg 94%
    09:00 +29°C° 0.1 mm 7 m/s 761 mmHg 92%
    10:00 +30°C° 0 mm 7 m/s 760 mmHg 81%
    11:00 +33°C° 0 mm 6 m/s 760 mmHg 70%
    12:00 +34°C° 0 mm 6 m/s 760 mmHg 58%
    13:00 +34°C° 0 mm 6 m/s 760 mmHg 59%
    14:00 +34°C° 0 mm 6 m/s 759 mmHg 59%
    15:00 +34°C° 0 mm 6 m/s 759 mmHg 59%
    16:00 +32°C° 0 mm 6 m/s 759 mmHg 66%
    17:00 +30°C° 0 mm 5 m/s 759 mmHg 74%
    18:00 +28°C° 0 mm 5 m/s 759 mmHg 82%
    19:00 +28°C° 0 mm 5 m/s 759 mmHg 87%
    20:00 +27°C° 0 mm 5 m/s 760 mmHg 92%
    21:00 +26°C° 0 mm 5 m/s 760 mmHg 97%
    22:00 +26°C° 0.1 mm 5 m/s 760 mmHg 97%
    23:00 +26°C° 0.1 mm 5 m/s 760 mmHg 97%

    Après-demain, 19 Juillet, Vendredi

    Heure Température Précipitation Vent Pression Humidité
    00:00 +26°C° 0.1 mm 5 m/s 760 mmHg 98%
    01:00 +26°C° 0 mm 5 m/s 759 mmHg 98%
    02:00 +26°C° 0 mm 5 m/s 759 mmHg 98%
    03:00 +26°C° 0 mm 5 m/s 759 mmHg 98%
    04:00 +26°C° 0 mm 5 m/s 759 mmHg 98%
    05:00 +26°C° 0 mm 5 m/s 759 mmHg 98%
    06:00 +26°C° 0 mm 5 m/s 759 mmHg 98%
    07:00 +27°C° 0 mm 5 m/s 760 mmHg 91%
    08:00 +29°C° 0 mm 5 m/s 760 mmHg 85%
    09:00 +30°C° 0 mm 5 m/s 760 mmHg 78%
    10:00 +30°C° 0.3 mm 5 m/s 760 mmHg 77%
    11:00 +32°C° 0.3 mm 5 m/s 760 mmHg 76%
    12:00 +32°C° 0.3 mm 5 m/s 760 mmHg 75%
    13:00 +32°C° 0.3 mm 5 m/s 760 mmHg 74%
    14:00 +32°C° 0.3 mm 5 m/s 759 mmHg 73%
    15:00 +32°C° 0.3 mm 5 m/s 758 mmHg 73%
    16:00 +30°C° 0.1 mm 5 m/s 759 mmHg 77%
    17:00 +29°C° 0.1 mm 4 m/s 759 mmHg 82%
    18:00 +28°C° 0.1 mm 4 m/s 759 mmHg 87%
    19:00 +28°C° 0.3 mm 4 m/s 759 mmHg 91%
    20:00 +27°C° 0.3 mm 4 m/s 760 mmHg 95%
    21:00 +26°C° 0.3 mm 5 m/s 760 mmHg 98%
    22:00 +26°C° 0.4 mm 4 m/s 760 mmHg 98%
    23:00 +26°C° 0.4 mm 4 m/s 760 mmHg 98%

    20 Juillet, Samedi

    Heure Température Précipitation Vent Pression Humidité
    00:00 +26°C° 0.4 mm 4 m/s 760 mmHg 98%
    01:00 +26°C° 1.1 mm 4 m/s 759 mmHg 98%
    02:00 +26°C° 1.1 mm 4 m/s 759 mmHg 98%
    03:00 +25°C° 1.1 mm 3 m/s 758 mmHg 98%
    04:00 +26°C° 1.7 mm 3 m/s 758 mmHg 98%
    05:00 +26°C° 1.7 mm 3 m/s 758 mmHg 98%
    06:00 +26°C° 1.7 mm 3 m/s 759 mmHg 98%
    07:00 +27°C° 1.8 mm 3 m/s 759 mmHg 91%
    08:00 +29°C° 1.8 mm 3 m/s 759 mmHg 83%
    09:00 +32°C° 1.8 mm 4 m/s 760 mmHg 76%
    10:00 +33°C° 1.7 mm 4 m/s 759 mmHg 72%
    11:00 +33°C° 1.7 mm 4 m/s 759 mmHg 67%
    12:00 +34°C° 1.7 mm 5 m/s 759 mmHg 63%
    13:00 +33°C° 1.2 mm 5 m/s 759 mmHg 66%
    14:00 +33°C° 1.2 mm 5 m/s 758 mmHg 70%
    15:00 +32°C° 1.2 mm 5 m/s 758 mmHg 74%
    16:00 +30°C° 0.7 mm 5 m/s 758 mmHg 81%
    17:00 +29°C° 0.7 mm 6 m/s 758 mmHg 89%
    18:00 +28°C° 0.7 mm 6 m/s 758 mmHg 96%
    19:00 +27°C° 0.8 mm 6 m/s 758 mmHg 97%
    20:00 +27°C° 0.8 mm 6 m/s 758 mmHg 98%
    21:00 +27°C° 0.8 mm 6 m/s 759 mmHg 99%
    22:00 +27°C° 0.8 mm 6 m/s 759 mmHg 99%
    23:00 +27°C° 0.8 mm 6 m/s 759 mmHg 99%

    21 Juillet, Dimanche

    Heure Température Précipitation Vent Pression Humidité
    00:00 +27°C° 0.8 mm 6 m/s 759 mmHg 98%
    01:00 +26°C° 0.5 mm 6 m/s 758 mmHg 98%
    02:00 +26°C° 0.5 mm 6 m/s 758 mmHg 98%
    03:00 +26°C° 0.5 mm 6 m/s 758 mmHg 98%
    04:00 +26°C° 0.2 mm 6 m/s 758 mmHg 98%
    05:00 +27°C° 0.2 mm 5 m/s 758 mmHg 99%
    06:00 +27°C° 0.2 mm 5 m/s 758 mmHg 99%
    07:00 +28°C° 0.3 mm 5 m/s 759 mmHg 97%
    08:00 +28°C° 0.3 mm 5 m/s 759 mmHg 96%
    09:00 +29°C° 0.3 mm 6 m/s 759 mmHg 95%
    10:00 +30°C° 0.9 mm 5 m/s 759 mmHg 91%
    11:00 +30°C° 0.9 mm 5 m/s 759 mmHg 87%
    12:00 +32°C° 0.9 mm 5 m/s 759 mmHg 82%
    13:00 +32°C° 0.6 mm 5 m/s 759 mmHg 83%
    14:00 +32°C° 0.6 mm 5 m/s 758 mmHg 83%
    15:00 +30°C° 0.6 mm 6 m/s 758 mmHg 83%
    16:00 +29°C° 0.6 mm 6 m/s 758 mmHg 88%
    17:00 +29°C° 0.6 mm 6 m/s 758 mmHg 92%
    18:00 +28°C° 0.6 mm 6 m/s 758 mmHg 97%
    19:00 +27°C° 0.4 mm 6 m/s 758 mmHg 98%
    20:00 +27°C° 0.4 mm 6 m/s 758 mmHg 98%
    21:00 +27°C° 0.4 mm 6 m/s 759 mmHg 99%
    22:00 +27°C° 0.9 mm 6 m/s 759 mmHg 99%
    23:00 +27°C° 0.9 mm 5 m/s 759 mmHg 99%

    22 Juillet, Lundi

    Heure Température Précipitation Vent Pression Humidité
    00:00 +27°C° 0.9 mm 5 m/s 759 mmHg 99%
    01:00 +27°C° 0.7 mm 5 m/s 758 mmHg 99%
    02:00 +27°C° 0.7 mm 5 m/s 758 mmHg 99%
    03:00 +27°C° 0.7 mm 5 m/s 758 mmHg 99%
    04:00 +27°C° 0.4 mm 5 m/s 758 mmHg 99%
    05:00 +27°C° 0.4 mm 4 m/s 758 mmHg 99%
    06:00 +27°C° 0.4 mm 4 m/s 758 mmHg 98%
    07:00 +27°C° 1 mm 4 m/s 759 mmHg 96%
    08:00 +28°C° 1 mm 4 m/s 759 mmHg 94%
    09:00 +29°C° 1 mm 5 m/s 759 mmHg 92%
    10:00 +30°C° 0.9 mm 5 m/s 759 mmHg 89%
    11:00 +30°C° 0.9 mm 4 m/s 759 mmHg 86%
    12:00 +30°C° 0.9 mm 4 m/s 759 mmHg 82%
    13:00 +30°C° 0.4 mm 4 m/s 759 mmHg 83%
    14:00 +30°C° 0.4 mm 4 m/s 759 mmHg 83%
    15:00 +30°C° 0.4 mm 4 m/s 758 mmHg 83%
    16:00 +30°C° 0.2 mm 5 m/s 758 mmHg 87%
    17:00 +29°C° 0.2 mm 5 m/s 758 mmHg 91%
    18:00 +28°C° 0.2 mm 5 m/s 758 mmHg 96%
    19:00 +28°C° 0 mm 5 m/s 759 mmHg 97%
    20:00 +27°C° 0 mm 5 m/s 759 mmHg 98%
    21:00 +27°C° 0 mm 5 m/s 759 mmHg 98%
    22:00 +27°C° 0.1 mm 5 m/s 759 mmHg 99%
    23:00 +27°C° 0.1 mm 5 m/s 759 mmHg 99%
    Voir plus